Location: Milton Keynes
(52.0316°N, 0.7531°W)
Time: 19:17:17
(UTC+01:00)

N. Korean satellite - Pass Details

Date: 01 February 2019
Orbit: 457 x 508 km, 97.2° (Epoch: 21 April)

Event Time Altitude Azimuth Distance (km) Brightness Sun altitude
Rises 06:10:25 0° 16° (NNE) 2,604 10.4 -14.4°
Reaches altitude 10° 06:12:33 10° 21° (NNE) 1,708 9.5 -14.1°
Maximum altitude 06:16:10 55° 100° (E) 598 7.4 -13.5°
Drops below altitude 10° 06:19:41 10° 179° (S) 1,663 9.4 -13.0°
Sets 06:21:45 0° 184° (S) 2,529 10.3 -12.7°
